DW9615 Home Hill AU current weather conditions

sailwx.info

Wind from 045 at 4 knots gusting 10

Air temperature 27.8° C
Dewpoint 16.1° C

Last reported at 2014-Oct-23 03:48 UTC.
Time now 2014-Oct-23 04:43 UTC

Location: S 19°40' E 147°25'.
View on Google Maps.

See reports from other nearby stations

  
Tides and Currents Weather Stations Pressure Air Temp Water Temp Dewpoint Dewpoint Depression Visibility Wind Speed Wind Dir Waves Ship Positions
date/time (UTC)wind fromknots sea level pressurealtimeterstation pressurevisibilityair tempwater tempwave heightnotes
2014-Oct-23 03:48 045 4 gusting 10 27.8
2014-Oct-23 03:33 101 6 gusting 11 27.2
2014-Oct-23 03:18 108 6 gusting 12 27.8
2014-Oct-23 03:03 116 4 gusting 11 27.8
2014-Oct-23 02:48 067 5 gusting 12 27.8
2014-Oct-23 02:33 102 4 gusting 13 28.3
2014-Oct-23 02:18 043 3 gusting 13 27.8
2014-Oct-23 02:03 074 3 gusting 9 28.3
2014-Oct-23 01:48 183 3 gusting 11 28.3
2014-Oct-23 01:33 117 5 gusting 13 27.8
2014-Oct-23 01:18 087 4 gusting 12 27.2
2014-Oct-23 01:03 107 5 gusting 10 27.8
2014-Oct-23 00:48 115 4 gusting 12 27.2
2014-Oct-23 00:32 163 4 gusting 12 27.8
2014-Oct-23 00:17 138 6 gusting 13 27.2
2014-Oct-23 00:02 098 6 gusting 13 26.7
2014-Oct-22 23:47 106 5 gusting 14 26.7
2014-Oct-22 23:32 111 6 gusting 13 26.1
2014-Oct-22 23:17 100 6 gusting 12 25.6
2014-Oct-22 23:02 143 5 gusting 13 25.6
2014-Oct-22 22:47 101 6 gusting 11 25.6
2014-Oct-22 22:32 175 3 gusting 9 25.0
2014-Oct-22 22:02 206 2 gusting 9 23.9
2014-Oct-22 21:47 185 3 gusting 7 23.3
2014-Oct-22 21:32 177 2 gusting 6 22.2
2014-Oct-22 21:17 158 3 gusting 6 21.1
2014-Oct-22 21:02 179 0 gusting 3 20.6
2014-Oct-22 20:47 204 20.0
2014-Oct-22 20:32 244 18.9
2014-Oct-22 20:17 162 18.9
2014-Oct-22 19:47 161 17.2
2014-Oct-22 19:32 162 17.2
2014-Oct-22 19:17 161 17.2
2014-Oct-22 19:02 177 16.7
2014-Oct-22 18:47 192 17.2
2014-Oct-22 18:32 195 17.2
2014-Oct-22 18:17 202 17.2
2014-Oct-22 18:02 195 17.2
2014-Oct-22 17:47 195 17.2
2014-Oct-22 17:32 176 17.8
2014-Oct-22 17:16 173 17.8
2014-Oct-22 17:01 157 17.8
2014-Oct-22 16:46 164 17.8
2014-Oct-22 16:31 171 17.8
2014-Oct-22 16:16 166 18.3
2014-Oct-22 16:01 178 18.3
2014-Oct-22 15:46 182 18.9
2014-Oct-22 15:31 183 19.4
2014-Oct-22 15:16 164 1 gusting 4 20.0
2014-Oct-22 15:01 178 0 gusting 4 20.0
2014-Oct-22 14:46 171 0 gusting 3 20.0
2014-Oct-22 14:31 157 20.0
2014-Oct-22 14:16 184 20.6
2014-Oct-22 14:01 117 21.1
2014-Oct-22 13:46 120 20.6
2014-Oct-22 13:31 150 21.1
2014-Oct-22 13:16 115 21.1
2014-Oct-22 13:01 119 21.7
2014-Oct-22 12:46 122 22.2
2014-Oct-22 12:31 074 1 gusting 6 22.2
2014-Oct-22 12:16 138 0 gusting 6 22.2
2014-Oct-22 12:01 068 2 gusting 6 22.2
2014-Oct-22 11:46 063 3 gusting 10 22.2
2014-Oct-22 11:31 144 5 gusting 11 22.8
2014-Oct-22 11:16 087 3 gusting 8 22.8
2014-Oct-22 11:01 096 3 gusting 7 22.8
2014-Oct-22 10:46 087 2 gusting 6 22.8
2014-Oct-22 10:31 111 3 gusting 6 22.8
2014-Oct-22 10:16 101 3 gusting 7 22.8
2014-Oct-22 10:01 098 2 gusting 9 22.8
2014-Oct-22 09:46 074 2 gusting 7 22.8
2014-Oct-22 09:31 049 3 gusting 7 23.3
2014-Oct-22 09:16 102 3 gusting 6 23.3
2014-Oct-22 09:01 098 6 gusting 10 23.3
2014-Oct-22 08:46 093 3 gusting 9 23.3
2014-Oct-22 08:31 109 5 gusting 11 23.3
2014-Oct-22 08:16 107 6 gusting 13 23.3
2014-Oct-22 08:01 118 6 gusting 13 23.9
2014-Oct-22 07:46 117 8 gusting 15 23.9
2014-Oct-22 07:31 093 7 gusting 17 24.4
2014-Oct-22 07:16 110 7 gusting 13 24.4
2014-Oct-22 07:01 064 7 gusting 18 25.0
2014-Oct-22 06:46 104 7 gusting 18 25.0
2014-Oct-22 06:31 063 8 gusting 18 25.6
2014-Oct-22 06:16 093 10 gusting 17 25.6
2014-Oct-22 06:01 090 9 gusting 18 26.1
2014-Oct-22 05:46 105 10 gusting 17 26.1
2014-Oct-22 05:31 064 9 gusting 16 26.7
2014-Oct-22 05:15 074 8 gusting 16 26.7
2014-Oct-22 05:00 089 8 gusting 18 26.7
2014-Oct-22 04:45 077 10 gusting 16 26.7
2014-Oct-22 04:30 094 11 gusting 17 27.2
2014-Oct-22 04:15 111 8 gusting 20 27.2
2014-Oct-22 04:00 121 9 gusting 19 27.2
2014-Oct-22 03:45 124 7 gusting 17 27.2
2014-Oct-22 03:30 061 7 gusting 13 27.8
2014-Oct-22 03:15 106 8 gusting 19 27.8
2014-Oct-22 03:00 072 6 28.3
2014-Oct-22 02:45 091 7 gusting 13 27.2
2014-Oct-22 02:30 064 6 gusting 13 27.2
2014-Oct-22 02:15 105 6 gusting 13 27.8
2014-Oct-22 02:00 081 8 gusting 15 27.2
2014-Oct-22 01:45 107 4 gusting 13 27.2
2014-Oct-22 01:30 047 4 gusting 13 27.2
2014-Oct-22 01:15 059 8 gusting 17 27.8
2014-Oct-22 01:00 073 6 gusting 15 27.2
2014-Oct-22 00:45 107 6 gusting 14 27.2
2014-Oct-22 00:30 114 6 gusting 13 26.7
2014-Oct-22 00:15 104 8 gusting 15 26.7
2014-Oct-22 00:00 166 4 gusting 12 26.7
2014-Oct-21 23:45 100 6 gusting 13 26.1
2014-Oct-21 23:30 115 4 gusting 11 26.1
2014-Oct-21 23:15 152 3 gusting 8 26.1
2014-Oct-21 23:00 101 6 gusting 14 25.0
2014-Oct-21 22:45 152 4 gusting 13 24.4
2014-Oct-21 22:29 177 2 gusting 6 22.8
2014-Oct-21 22:14 135 3 gusting 6 21.7
2014-Oct-21 21:59 145 2 gusting 6 21.1
2014-Oct-21 21:44 145 0 gusting 6 20.0
2014-Oct-21 21:29 144 1 gusting 6 20.0
2014-Oct-21 21:14 140 0 gusting 6 20.0
2014-Oct-21 20:59 115 2 gusting 6 19.4
2014-Oct-21 20:44 172 0 gusting 4 19.4
2014-Oct-21 20:29 133 1 gusting 7 20.0
2014-Oct-21 20:14 029 1 gusting 7 20.0
2014-Oct-21 19:59 165 1 gusting 5 20.0
2014-Oct-21 19:44 173 19.4
2014-Oct-21 19:29 180 19.4
2014-Oct-21 19:14 152 19.4
2014-Oct-21 18:59 152 19.4
2014-Oct-21 18:44 137 19.4
2014-Oct-21 18:29 156 19.4
2014-Oct-21 18:14 129 19.4
2014-Oct-21 17:59 129 19.4
2014-Oct-21 17:44 130 19.4
2014-Oct-21 17:29 059 2 gusting 4 19.4
2014-Oct-21 17:14 110 1 gusting 5 19.4
2014-Oct-21 16:59 105 1 gusting 4 20.0
2014-Oct-21 16:44 151 19.4
2014-Oct-21 16:29 081 19.4
2014-Oct-21 16:14 092 20.0
2014-Oct-21 15:59 066 20.0
2014-Oct-21 15:44 143 0 gusting 3 20.0
2014-Oct-21 15:29 176 20.0
2014-Oct-21 15:14 176 1 gusting 3 20.6
2014-Oct-21 14:59 140 20.6
2014-Oct-21 14:29 148 21.1
2014-Oct-21 14:13 121 0 gusting 5 21.1
2014-Oct-21 13:58 145 2 gusting 4 20.6
2014-Oct-21 13:28 141 0 gusting 4 20.6
2014-Oct-21 13:13 138 0 gusting 5 20.6
2014-Oct-21 12:58 147 2 gusting 6 20.6
2014-Oct-21 12:43 146 1 gusting 6 20.6
2014-Oct-21 12:28 140 2 gusting 4 20.6
2014-Oct-21 12:13 163 0 gusting 4 21.1
2014-Oct-21 11:58 160 0 gusting 3 21.1
2014-Oct-21 11:43 159 1 gusting 6 21.7
2014-Oct-21 11:28 109 1 gusting 6 22.2
2014-Oct-21 11:13 179 4 gusting 9 22.2
2014-Oct-21 10:58 238 3 gusting 10 22.2
2014-Oct-21 10:43 158 3 gusting 11 22.2
2014-Oct-21 10:28 090 4 gusting 10 22.2
2014-Oct-21 10:13 122 4 gusting 9 22.2
2014-Oct-21 09:58 163 3 gusting 7 22.2
2014-Oct-21 09:43 069 2 gusting 7 22.8
2014-Oct-21 09:28 122 5 gusting 9 22.8
2014-Oct-21 09:13 102 4 gusting 12 23.3
2014-Oct-21 08:58 112 4 gusting 13 23.3
2014-Oct-21 08:43 031 6 gusting 14 23.3
2014-Oct-21 08:28 108 7 gusting 17 23.3
2014-Oct-21 08:13 121 6 gusting 15 23.3
2014-Oct-21 07:58 126 9 gusting 18 23.9
2014-Oct-21 07:44 134 10 gusting 20 23.9
2014-Oct-21 07:28 072 8 gusting 17 24.4
2014-Oct-21 07:13 097 9 gusting 18 25.0
2014-Oct-21 06:58 101 11 gusting 22 25.0
2014-Oct-21 06:43 104 8 gusting 19 25.6
2014-Oct-21 06:28 067 10 gusting 15 25.6
2014-Oct-21 06:12 177 11 gusting 17 26.1
2014-Oct-21 05:57 087 9 gusting 19 26.1
2014-Oct-21 05:42 105 9 gusting 18 26.1
2014-Oct-21 05:27 094 10 gusting 17 26.1
2014-Oct-21 05:12 131 9 gusting 15 26.7
2014-Oct-21 04:57 063 6 gusting 16 26.7
2014-Oct-21 04:42 098 6 gusting 16 27.2
2014-Oct-21 04:27 147 8 gusting 16 27.2
2014-Oct-21 04:12 124 7 gusting 15 27.8